Content
SEND FEEDBACK

Daily
Averages
Monthly
Summary
United Kingdom

LONDON, ENGLAND


Home > Europe > United Kingdom > England
Elevation: 203 feet     Latitude: 51 09N     Longitude: 000 11W

WEATHER
 
SELECT A DAY
Number of Records: 293,981;   Date Range: 7/1/96 - 9/1/14
 
SHARE

PRINT THIS DATA

[ ← Previous Day ]
WEATHER ALMANAC - DECEMBER 22, 2013
[ Next Day → ]
[ °C ]   °F
Weather ElementAverageHighLow
Temperature45.9 °F50 °F (6:50 am)41 °F (9:20 pm)
Dewpoint39.7 °F44.6 °F (6:50 am)33.8 °F (9:50 pm)
Humidity79.1 %87 % (4:50 am)66 % (3:20 pm)
Barometer29.84 in29.95 in (9:50 pm)29.77 in (6:50 am)
Wind Speed10.7 mph19.6 mph (7:50 am)
Wind Gust31.1 mph (7:20 am)
Weather ElementAverage
Visibility6 mi
Wind DirectionSW (225.5 °)

Weather ElementTotal
Precipitation---
Heating Degree Days19.5 (Base 65)
Averaged from 47 records on December 22, 2013
WEATHER CONDITIONS BREAKOUT
WIND DIRECTION BREAKOUT
WEATHER BY HOUR - DECEMBER 22, 2013
[ °C ]   °F
Local TimeTemperatureDewpointHumidityBarometerVisibilityWind DirectionWind SpeedGust SpeedPrecipitationEventsConditions
12:50 AM48.2 °F41.0 °F76 %29.86 in6.2 miSW (230°)10.4 mphPartly Cloudy
1:20 AM46.4 °F41.0 °F81 %29.86 in6.2 miSW (220°)8.1 mphPartly Cloudy
1:50 AM46.4 °F41.0 °F81 %29.86 in6.2 miSW (220°)9.2 mphPartly Cloudy
2:20 AM46.4 °F41.0 °F81 %29.86 inSW (220°)9.2 mphClear
2:50 AM46.4 °F41.0 °F81 %29.86 in6.2 miSW (220°)6.9 mphPartly Cloudy
3:20 AM46.4 °F41.0 °F81 %29.86 in6.2 miSSW (200°)6.9 mphPartly Cloudy
3:50 AM46.4 °F41.0 °F81 %29.83 inSSW (200°)8.1 mphClear
4:20 AM46.4 °F41.0 °F81 %29.83 in6.2 miSSW (210°)10.4 mphPartly Cloudy
4:50 AM46.4 °F42.8 °F87 %29.80 in6.2 miSSW (210°)10.4 mphScattered Clouds
5:20 AM48.2 °F42.8 °F82 %29.80 in6.2 miSSW (210°)10.4 mphScattered Clouds
5:50 AM48.2 °F42.8 °F82 %29.80 in6.2 miSSW (210°)12.7 mphRainLight Rain
6:20 AM48.2 °F42.8 °F82 %29.80 in6.2 miSW (220°)15.0 mph26.5 mphScattered Clouds
6:50 AM50.0 °F44.6 °F82 %29.77 in4.3 miSSW (210°)15.0 mphRainLight Rain Showers
7:20 AM48.2 °F44.6 °F87 %29.77 in4.3 miSW (220°)18.4 mph31.1 mphRainLight Rain Showers
7:50 AM48.2 °F44.6 °F87 %29.77 in5.6 miSW (230°)19.6 mph31.1 mphRainLight Rain Showers
8:20 AM46.4 °F42.8 °F87 %29.80 in5.0 miSW (230°)15.0 mphRainRain Showers
8:50 AM46.4 °F42.8 °F87 %29.80 in6.2 miSW (220°)11.5 mphScattered Clouds
9:20 AM46.4 °F42.8 °F87 %29.80 in5.0 miSW (220°)12.7 mph25.3 mphRainLight Rain Showers
9:50 AM46.4 °F42.8 °F87 %29.80 in5.6 miSW (220°)10.4 mphRainLight Rain Showers
10:20 AM46.4 °F42.8 °F87 %29.80 in6.2 miSSW (210°)10.4 mphPartly Cloudy
10:50 AM46.4 °F42.8 °F87 %29.80 in6.2 miSSW (210°)9.2 mphPartly Cloudy
11:20 AM48.2 °F42.8 °F82 %29.80 in6.2 miSW (230°)11.5 mphPartly Cloudy
11:50 AM48.2 °F42.8 °F82 %29.80 in6.2 miWSW (240°)13.8 mphPartly Cloudy
12:20 PM48.2 °F41.0 °F76 %29.80 in6.2 miWSW (240°)16.1 mphPartly Cloudy
12:50 PM48.2 °F41.0 °F76 %29.80 in6.2 miSW (230°)13.8 mphPartly Cloudy
1:20 PM50.0 °F41.0 °F71 %29.80 in6.2 miWSW (240°)12.7 mph24.2 mphPartly Cloudy
1:50 PM50.0 °F41.0 °F71 %29.80 in6.2 miSW (230°)13.8 mphScattered Clouds
2:20 PM48.2 °F41.0 °F76 %29.80 in6.2 miWSW (250°)10.4 mphScattered Clouds
2:50 PM48.2 °F41.0 °F76 %29.80 in6.2 miWSW (250°)8.1 mphScattered Clouds
3:20 PM48.2 °F37.4 °F66 %29.80 in6.2 miWSW (240°)10.4 mphScattered Clouds
3:50 PM46.4 °F35.6 °F66 %29.83 in6.2 miSW (230°)8.1 mphPartly Cloudy
4:20 PM46.4 °F37.4 °F71 %29.83 in6.2 miSW (230°)10.4 mphPartly Cloudy
4:50 PM44.6 °F37.4 °F76 %29.83 in6.2 miSW (230°)8.1 mphPartly Cloudy
5:20 PM44.6 °F37.4 °F76 %29.86 inSW (230°)10.4 mphClear
5:50 PM44.6 °F35.6 °F71 %29.86 inWSW (240°)11.5 mphClear
6:20 PM44.6 °F35.6 °F71 %29.89 inWSW (250°)12.7 mphClear
6:50 PM42.8 °F35.6 °F76 %29.89 inWSW (240°)8.1 mphClear
7:20 PM42.8 °F35.6 °F76 %29.89 inSW (220°)5.8 mphClear
7:50 PM42.8 °F35.6 °F76 %29.92 inSW (230°)8.1 mphClear
8:20 PM42.8 °F35.6 °F76 %29.92 inSW (230°)8.1 mphClear
8:50 PM42.8 °F35.6 °F76 %29.92 inSW (230°)8.1 mphClear
9:20 PM41.0 °F35.6 °F81 %29.92 inSW (230°)9.2 mphClear
9:50 PM42.8 °F33.8 °F70 %29.95 inSW (230°)10.4 mphClear
10:20 PM41.0 °F35.6 °F81 %29.95 inSW (230°)9.2 mphClear
10:50 PM41.0 °F35.6 °F81 %29.95 inSW (220°)9.2 mphClear
11:20 PM41.0 °F35.6 °F81 %29.95 inSW (230°)6.9 mphClear
11:50 PM41.0 °F35.6 °F81 %29.95 in6.2 miSSW (210°)5.8 mphPartly Cloudy
Hourly data recorded from EGKK, located miles away from London, England







STORIES FROM OUR PARTNERS